EW7199 Weather Reports


time (UTC)temp
F
wind
direction
speed
knots
gust
knots
rain 1hr
in
rain 24hr
in
rain mn
in
humidity
%
barometer
mb
20260903145408 91 351 3.5 6.1 0.00 0.00 0.00 37 1013.3
20260903144408 92 293 2.6 4.3 0.00 0.00 0.00 36 1013.3
20260903143408 92 316 2.6 6.1 0.00 0.00 0.00 36 1013.2
20260903142909 92 288 3.5 6.1 0.00 0.00 0.00 35 1013.2
20260903142409 92 309 2.6 7.8 0.00 0.00 0.00 35 1013.2
20260903141909 92 285 2.6 6.1 0.00 0.00 0.00 34 1013.2
20260903141409 93 295 1.7 4.3 0.00 0.00 0.00 34 1013.2
20260903140909 93 333 2.6 6.1 0.00 0.00 0.00 33 1013.2
20260903140409 93 322 2.6 5.2 0.00 0.00 0.00 34 1013.1
20260903135908 93 296 2.6 6.1 0.00 0.00 0.00 34 1013.1
20260903135410 93 302 2.6 5.2 0.00 0.00 0.00 33 1013.1
20260903134909 93 311 1.7 2.6 0.00 0.00 0.00 33 1013.2
20260903134409 93 316 1.7 4.3 0.00 0.00 0.00 34 1013.2
20260903133909 93 332 2.6 6.1 0.00 0.00 0.00 34 1013.3
20260903133409 93 322 2.6 6.1 0.00 0.00 0.00 33 1013.3
20260903132909 93 300 1.7 2.6 0.00 0.00 0.00 34 1013.3
20260903132408 92 296 2.6 2.6 0.00 0.00 0.00 35 1013.3
20260903131909 92 302 4.3 6.1 0.00 0.00 0.00 36 1013.4
20260903130908 92 304 3.5 7.0 0.00 0.00 0.00 35 1013.4
20260903130410 92 290 3.5 7.0 0.00 0.00 0.00 35 1013.5
20260903125908 92 295 3.5 5.2 0.00 0.00 0.00 35 1013.5
20260903125408 92 297 2.6 6.1 0.00 0.00 0.00 34 1013.4
20260903124908 93 321 1.7 4.3 0.00 0.00 0.00 34 1013.5
20260903124409 93 244 2.6 4.3 0.00 0.00 0.00 36 1013.5
20260903123909 92 291 1.7 4.3 0.00 0.00 0.00 35 1013.5
20260903123408 92 300 2.6 6.1 0.00 0.00 0.00 34 1013.6
20260903122409 93 346 2.6 11.3 0.00 0.00 0.00 34 1013.6
20260903121909 93 348 2.6 5.2 0.00 0.00 0.00 33 1013.6
20260903121408 93 312 2.6 5.2 0.00 0.00 0.00 32 1013.7
20260903120409 92 267 2.6 5.2 0.00 0.00 0.00 34 1013.7
20260903115909 92 257 1.7 4.3 0.00 0.00 0.00 33 1013.7
20260903115409 93 309 2.6 6.1 0.00 0.00 0.00 32 1013.8
20260903114908 93 324 2.6 5.2 0.00 0.00 0.00 31 1013.8
20260903114409 93 315 1.7 4.3 0.00 0.00 0.00 32 1013.8
20260903113910 93 288 2.6 5.2 0.00 0.00 0.00 32 1013.8
20260903113410 93 286 1.7 2.6 0.00 0.00 0.00 33 1013.9
20260903112909 93 316 1.7 2.6 0.00 0.00 0.00 32 1013.9
20260903111909 93 306 1.7 5.2 0.00 0.00 0.00 32 1014.0
20260903110909 92 311 2.6 7.0 0.00 0.00 0.00 32 1014.1
20260903110409 92 338 2.6 4.3 0.00 0.00 0.00 32 1014.2
20260903105909 92 293 2.6 4.3 0.00 0.00 0.00 31 1014.1
20260903105409 92 303 1.7 4.3 0.00 0.00 0.00 31 1014.2
20260903104908 92 287 1.7 4.3 0.00 0.00 0.00 31 1014.2
20260903104409 92 349 2.6 4.3 0.00 0.00 0.00 32 1014.3
20260903103408 92 293 1.7 2.6 0.00 0.00 0.00 35 1014.4
20260903102909 91 328 1.7 2.6 0.00 0.00 0.00 35 1014.4
20260903101910 91 259 1.7 2.6 0.00 0.00 0.00 40 1014.5
20260903101409 90 268 1.7 2.6 0.00 0.00 0.00 39 1014.5
20260903100412 89 230 2.6 2.6 0.00 0.00 0.00 44 1014.7
20260903095909 89 235 1.7 2.6 0.00 0.00 0.00 45 1014.7
20260903095409 88 179 0.9 1.7 0.00 0.00 0.00 43 1014.7
20260903094909 88 213 1.7 2.6 0.00 0.00 0.00 48 1014.8
20260903093909 88 182 1.7 2.6 0.00 0.00 0.00 48 1014.9
20260903093408 87 243 1.7 2.6 0.00 0.00 0.00 50 1014.9
20260903092908 87 219 1.7 4.3 0.00 0.00 0.00 47 1014.9
20260903092408 87 235 2.6 2.6 0.00 0.00 0.00 53 1015.0
20260903091909 87 217 1.7 2.6 0.00 0.00 0.00 53 1015.0
20260903090909 87 220 1.7 2.6 0.00 0.00 0.00 53 1015.1
20260903090409 86 229 1.7 2.6 0.00 0.00 0.00 54 1015.1
20260903085409 85 227 1.7 2.6 0.00 0.00 0.00 58 1015.1
20260903084908 85 217 1.7 2.6 0.00 0.00 0.00 60 1015.1
20260903084409 85 223 1.7 2.6 0.00 0.00 0.00 59 1015.1
20260903083408 84 219 1.7 2.6 0.00 0.00 0.00 58 1015.1
20260903082908 84 225 0.9 2.6 0.00 0.00 0.00 60 1015.1
20260903082409 84 222 1.7 2.6 0.00 0.00 0.00 60 1015.1
20260903081908 83 255 1.7 2.6 0.00 0.00 0.00 59 1015.0
20260903081408 83 235 1.7 2.6 0.00 0.00 0.00 60 1015.0
20260903080909 83 249 1.7 2.6 0.00 0.00 0.00 60 1015.0
20260903080409 83 259 1.7 2.6 0.00 0.00 0.00 61 1015.0
20260903075908 82 249 1.7 2.6 0.00 0.00 0.00 62 1015.0
20260903075408 82 256 1.7 2.6 0.00 0.00 0.00 61 1015.0
20260903074908 82 248 1.7 2.6 0.00 0.00 0.00 62 1015.0
20260903074408 82 275 1.7 2.6 0.00 0.00 0.00 61 1015.0
20260903073909 82 245 1.7 2.6 0.00 0.00 0.00 62 1015.0
20260903073407 82 271 1.7 2.6 0.00 0.00 0.00 63 1015.0
20260903072908 81 246 1.7 2.6 0.00 0.00 0.00 62 1015.0
20260903072410 81 271 1.7 2.6 0.00 0.00 0.00 63 1015.0
20260903071909 81 271 2.6 2.6 0.00 0.00 0.00 62 1014.9
20260903071408 81 258 1.7 2.6 0.00 0.00 0.00 63 1015.0
20260903070909 81 269 1.7 2.6 0.00 0.00 0.00 63 1014.9
20260903070409 81 257 1.7 2.6 0.00 0.00 0.00 64 1014.9
20260903065409 81 254 1.7 2.6 0.00 0.00 0.00 64 1014.9
20260903064915 80 257 1.7 2.6 0.00 0.00 0.00 64 1014.8
20260903064410 80 260 1.7 2.6 0.00 0.00 0.00 65 1014.8
20260903063909 80 272 2.6 2.6 0.00 0.00 0.00 64 1014.8
20260903063409 80 257 1.7 2.6 0.00 0.00 0.00 65 1014.9
20260903062908 80 270 2.6 2.6 0.00 0.00 0.00 65 1014.8
20260903062408 80 267 2.6 2.6 0.00 0.00 0.00 65 1014.9
20260903061410 80 276 1.7 2.6 0.00 0.00 0.00 66 1015.0
20260903060910 80 255 1.7 2.6 0.00 0.00 0.00 66 1015.0
20260903060409 80 255 0.9 2.6 0.00 0.00 0.00 67 1015.0
20260903055409 80 270 1.7 2.6 0.00 0.00 0.00 67 1015.0
20260903054411 80 259 2.6 2.6 0.00 0.00 0.00 68 1015.0
20260903053909 80 264 1.7 2.6 0.00 0.00 0.00 69 1014.9
20260903052909 80 280 1.7 2.6 0.00 0.00 0.00 72 1014.8
20260903052410 80 245 1.7 2.6 0.00 0.00 0.00 72 1014.8
20260903051909 80 308 0.9 2.6 0.00 0.00 0.00 72 1014.8
20260903050908 80 228 1.7 2.6 0.00 0.00 0.00 72 1014.8
20260903050409 80 241 1.7 2.6 0.00 0.00 0.00 72 1014.8
20260903045910 80 247 1.7 2.6 0.00 0.00 0.00 72 1014.8
20260903045409 79 277 0.9 2.6 0.00 0.00 0.00 72 1014.8
20260903044908 79 289 1.7 2.6 0.00 0.00 0.00 72 1014.8
20260903044409 79 262 1.7 2.6 0.00 0.00 0.00 71 1014.8
20260903043908 80 271 0.9 2.6 0.00 0.00 0.00 71 1014.7
20260903043408 80 277 1.7 2.6 0.00 0.00 0.00 71 1014.7
20260903042908 80 281 0.9 2.6 0.00 0.00 0.00 71 1014.7
20260903042408 80 285 1.7 2.6 0.00 0.00 0.00 71 1014.7
20260903041908 80 289 1.7 2.6 0.00 0.00 0.00 70 1014.7
20260903041408 80 278 1.7 2.6 0.00 0.00 0.00 70 1014.6
20260903040909 80 313 1.7 2.6 0.00 0.00 0.00 69 1014.7
20260903040409 80 306 1.7 2.6 0.00 0.00 0.00 69 1014.6
20260903034909 80 290 0.9 2.6 0.00 0.00 0.00 68 1014.6
20260903034409 80 277 1.7 2.6 0.00 0.00 0.00 68 1014.5
20260903033908 80 287 0.9 2.6 0.00 0.00 0.00 68 1014.5
20260903033410 80 260 1.7 2.6 0.00 0.00 0.00 68 1014.5
20260903032909 80 246 0.9 2.6 0.00 0.00 0.00 68 1014.5
20260903032407 80 265 1.7 2.6 0.00 0.00 0.00 69 1014.6
20260903031909 80 264 1.7 2.6 0.00 0.00 0.00 70 1014.6
20260903031409 80 260 0.9 2.6 0.00 0.00 0.00 69 1014.6
20260903030909 80 324 0.0 1.7 0.00 0.00 0.00 69 1014.6
20260903030409 80 330 0.0 1.7 0.00 0.00 0.00 69 1014.6
20260903025910 80 34 0.9 2.6 0.00 0.00 0.00 68 1014.6
20260903024909 80 16 0.0 0.0 0.00 0.00 0.00 67 1014.6
20260903023909 80 138 0.0 1.7 0.00 0.00 0.00 67 1014.7
20260903023408 79 138 0.0 0.9 0.00 0.00 0.00 66 1014.8
20260903022908 79 137 0.9 1.7 0.00 0.00 0.00 67 1014.8
20260903022408 80 133 0.0 1.7 0.00 0.00 0.00 68 1014.8
20260903021909 80 108 0.0 1.7 0.00 0.00 0.00 67 1014.8
20260903021409 81 91 0.9 2.6 0.00 0.00 0.00 65 1014.7
20260903020909 81 74 0.0 0.0 0.00 0.00 0.00 64 1014.8
20260903015908 81 310 0.0 0.0 0.00 0.00 0.00 63 1014.8
20260903015408 80 312 0.0 0.0 0.00 0.00 0.00 63 1014.8
20260903014908 80 296 0.0 0.0 0.00 0.00 0.00 65 1014.9
20260903014408 80 296 0.0 0.0 0.00 0.00 0.00 65 1014.9
20260903013908 81 296 0.0 0.0 0.00 0.00 0.00 65 1014.8
20260903012909 81 296 0.0 0.0 0.00 0.00 0.00 66 1014.9
20260903012409 81 296 0.0 0.0 0.00 0.00 0.00 66 1014.9
20260903011908 81 303 0.0 0.0 0.00 0.00 0.00 65 1014.9
20260903011410 81 309 0.0 0.0 0.00 0.00 0.00 67 1014.9
20260903010909 81 309 0.0 1.7 0.00 0.00 0.00 67 1014.9
20260903010409 81 296 0.9 2.6 0.00 0.00 0.00 67 1014.9
20260903005908 81 254 0.9 1.7 0.00 0.00 0.00 67 1014.9
20260903005409 81 240 0.9 2.6 0.00 0.00 0.00 66 1014.9
20260903004909 81 264 1.7 2.6 0.00 0.00 0.00 65 1014.9
20260903004409 81 278 1.7 2.6 0.00 0.00 0.00 66 1014.8
20260903003408 81 272 1.7 2.6 0.00 0.00 0.00 68 1014.9
20260903002908 81 265 1.7 2.6 0.00 0.00 0.00 67 1014.9
20260903002408 81 235 1.7 2.6 0.00 0.00 0.00 67 1014.9
20260903000908 82 255 1.7 2.6 0.00 0.00 0.00 61 1014.9
20260902235910 82 256 1.7 2.6 0.00 0.00 0.00 60 1014.9
20260902235408 83 259 0.9 1.7 0.00 0.00 0.00 58 1014.9
20260902233408 82 301 0.9 2.6 0.00 0.00 0.00 57 1014.9
20260902232908 82 250 0.9 2.6 0.00 0.00 0.00 57 1015.0
20260902232407 82 258 1.7 2.6 0.00 0.00 0.00 60 1015.0
20260902231909 82 250 1.7 2.6 0.00 0.00 0.00 63 1015.0
20260902231406 82 260 1.7 2.6 0.00 0.00 0.00 61 1015.1
20260902230909 81 254 1.7 2.6 0.00 0.00 0.00 64 1015.1
20260902230409 81 246 1.7 2.6 0.00 0.00 0.00 65 1015.1
20260902225909 81 255 0.9 2.6 0.00 0.00 0.00 66 1015.1
20260902225408 81 257 0.9 2.6 0.00 0.00 0.00 67 1015.2
20260902224908 81 254 0.9 2.6 0.00 0.00 0.00 68 1015.2
20260902224409 81 263 1.7 2.6 0.00 0.00 0.00 68 1015.2
20260902223908 81 265 2.6 2.6 0.00 0.00 0.00 66 1015.2
20260902223409 82 263 1.7 2.6 0.00 0.00 0.00 68 1015.2
20260902222910 82 259 1.7 2.6 0.00 0.00 0.00 67 1015.2
20260902222409 82 253 0.9 2.6 0.00 0.00 0.00 65 1015.1
20260902221908 82 292 0.9 2.6 0.00 0.00 0.00 65 1015.1
20260902221408 82 258 1.7 2.6 0.00 0.00 0.00 69 1015.1
20260902220908 81 275 0.9 1.7 0.00 0.00 0.00 70 1015.1
20260902220408 81 312 1.7 2.6 0.00 0.00 0.00 73 1015.1
20260902215909 81 275 1.7 2.6 0.00 0.00 0.00 74 1015.1
20260902215409 81 257 1.7 2.6 0.00 0.00 0.00 73 1015.1
20260902214410 81 265 1.7 1.7 0.00 0.00 0.00 72 1015.2
20260902213909 81 252 1.7 1.7 0.00 0.00 0.00 72 1015.1
20260902213409 81 243 0.9 1.7 0.00 0.00 0.00 73 1015.2
20260902212408 81 246 0.9 1.7 0.00 0.00 0.00 72 1015.2
20260902211909 81 245 0.9 1.7 0.00 0.00 0.00 72 1015.3
20260902211409 81 244 1.7 1.7 0.00 0.00 0.00 73 1015.2
20260902210910 81 251 0.0 0.9 0.00 0.00 0.00 74 1015.2
20260902210409 81 251 0.9 1.7 0.00 0.00 0.00 74 1015.2
20260902205909 81 251 0.9 1.7 0.00 0.00 0.00 74 1015.2
20260902205409 81 247 1.7 1.7 0.00 0.00 0.00 74 1015.3
20260902204910 81 249 0.9 1.7 0.00 0.00 0.00 74 1015.3
20260902204409 81 243 0.9 1.7 0.00 0.00 0.00 74 1015.3
20260902203914 81 256 0.9 2.6 0.00 0.00 0.00 73 1015.2
20260902203409 81 255 1.7 1.7 0.00 0.00 0.00 72 1015.3
20260902202909 82 238 1.7 1.7 0.00 0.00 0.00 73 1015.3
20260902202408 82 251 0.9 1.7 0.00 0.00 0.00 72 1015.3
20260902201908 82 244 0.9 1.7 0.00 0.00 0.00 72 1015.3
20260902201409 82 258 0.9 2.6 0.00 0.00 0.00 71 1015.2
20260902200909 82 298 0.9 1.7 0.00 0.00 0.00 71 1015.1
20260902200408 82 319 0.0 0.0 0.00 0.00 0.00 71 1015.1
20260902195409 82 323 0.9 1.7 0.00 0.00 0.00 70 1015.2
20260902194408 82 307 0.0 0.9 0.00 0.00 0.00 69 1015.2
20260902193908 82 84 0.0 1.7 0.00 0.00 0.00 68 1015.1
20260902193409 82 52 0.9 2.6 0.00 0.00 0.00 68 1015.1
20260902192409 82 277 0.9 2.6 0.00 0.00 0.00 67 1015.2
20260902191409 81 298 1.7 2.6 0.00 0.00 0.00 68 1015.3
20260902190909 81 301 0.9 2.6 0.00 0.00 0.00 69 1015.3
20260902185908 81 226 0.9 2.6 0.00 0.00 0.00 70 1015.2
20260902185410 81 254 0.9 2.6 0.00 0.00 0.00 71 1015.1
20260902184909 81 273 1.7 2.6 0.00 0.00 0.00 72 1015.1
20260902184409 81 268 2.6 2.6 0.00 0.00 0.00 72 1015.1
20260902183908 81 264 2.6 2.6 0.00 0.00 0.00 70 1015.1
20260902183408 81 266 1.7 2.6 0.00 0.00 0.00 70 1015.1
20260902182908 81 271 1.7 2.6 0.00 0.00 0.00 70 1015.0
20260902182408 81 259 1.7 2.6 0.00 0.00 0.00 70 1015.0
20260902181909 81 273 1.7 2.6 0.00 0.00 0.00 72 1014.8
20260902181408 81 263 1.7 2.6 0.00 0.00 0.00 70 1014.8
20260902180908 81 258 1.7 2.6 0.00 0.00 0.00 70 1014.8
20260902180408 81 255 2.6 2.6 0.00 0.00 0.00 70 1014.8
20260902175908 81 262 2.6 2.6 0.00 0.00 0.00 72 1014.7
20260902175408 81 268 2.6 2.6 0.00 0.00 0.00 72 1014.7
20260902174908 81 260 1.7 2.6 0.00 0.00 0.00 72 1014.7
20260902174409 81 256 2.6 4.3 0.00 0.00 0.00 71 1014.7
20260902173909 81 244 2.6 2.6 0.00 0.00 0.00 70 1014.6
20260902173410 81 272 2.6 5.2 0.00 0.00 0.00 68 1014.8
20260902172910 80 263 2.6 5.2 0.00 0.00 0.00 73 1014.9
20260902172408 81 262 2.6 2.6 0.00 0.00 0.00 74 1014.8
20260902171908 81 249 2.6 5.2 0.00 0.00 0.00 74 1014.8
20260902171408 82 247 2.6 2.6 0.00 0.00 0.00 73 1014.8
20260902170409 82 239 2.6 2.6 0.00 0.00 0.00 75 1014.8
20260902165407 82 243 2.6 2.6 0.00 0.00 0.00 71 1015.0
20260902164909 82 234 2.6 2.6 0.00 0.00 0.00 70 1015.2
20260902163409 82 260 1.7 2.6 0.00 0.00 0.00 71 1015.4
20260902162909 82 268 2.6 2.6 0.00 0.00 0.00 71 1015.4
20260902162409 82 261 2.6 2.6 0.00 0.00 0.00 72 1015.5
20260902161908 82 259 2.6 2.6 0.00 0.00 0.00 71 1015.5
20260902161410 82 263 1.7 2.6 0.00 0.00 0.00 71 1015.5
20260902160909 81 254 0.9 2.6 0.00 0.00 0.00 72 1015.6
20260902160409 81 275 1.7 2.6 0.00 0.00 0.00 72 1015.6
20260902155908 81 247 1.7 5.2 0.00 0.00 0.00 73 1015.7
20260902155409 81 264 2.6 7.0 0.00 0.00 0.00 72 1015.8
20260902154909 82 258 2.6 6.1 0.00 0.00 0.00 70 1015.7
20260902153909 82 256 1.7 6.1 0.00 0.00 0.00 66 1015.7
20260902153408 82 246 4.3 6.1 0.00 0.00 0.00 64 1015.8
20260902152908 83 265 5.2 7.8 0.00 0.00 0.00 66 1015.9
20260902152408 84 264 4.3 6.1 0.00 0.00 0.00 69 1015.8
20260902151908 84 257 2.6 5.2 0.00 0.00 0.00 69 1015.7
20260902151408 85 263 1.7 4.3 0.00 0.00 0.00 68 1015.5
20260902150908 85 269 2.6 5.2 0.00 0.00 0.00 66 1015.5
20260902150408 85 233 2.6 6.1 0.00 0.00 0.00 66 1015.4